Time,TemperatureF,DewpointF,PressureIn,WindDirection,WindDirectionDegrees,WindSpeedMPH,WindSpeedGustMPH,Humidity,HourlyPrecipIn,Conditions,Clouds,dailyrainin,SoftwareType,DateUTC
2013-09-29 00:00:00,52.9,52.9,30.29,SSE,165,0.0,0.0,100,0.00,CLR,,0.00,WeatherDisplay:10.37,2013-09-29 04:00:00,
2013-09-29 00:05:00,52.8,52.8,30.28,SSE,165,0.0,0.0,100,0.00,CLR,,0.00,WeatherDisplay:10.37,2013-09-29 04:05:00,
2013-09-29 00:10:00,52.7,52.7,30.28,SSE,165,0.0,0.0,100,0.00,CLR,,0.00,WeatherDisplay:10.37,2013-09-29 04:10:00,
2013-09-29 00:15:00,52.6,52.6,30.28,SSE,165,0.0,0.0,100,0.00,CLR,,0.00,WeatherDisplay:10.37,2013-09-29 04:15:00,
2013-09-29 00:25:00,52.2,52.2,30.28,SSE,165,0.0,0.0,100,0.00,CLR,,0.00,WeatherDisplay:10.37,2013-09-29 04:25:00,
2013-09-29 00:30:00,52.0,52.0,30.27,SSE,165,0.0,0.0,100,0.00,CLR,,0.00,WeatherDisplay:10.37,2013-09-29 04:30:00,
2013-09-29 00:40:00,51.9,51.9,30.27,SSE,165,0.0,0.0,100,0.00,CLR,,0.00,WeatherDisplay:10.37,2013-09-29 04:40:00,
2013-09-29 00:45:00,51.8,51.8,30.27,SSE,165,0.0,0.0,100,0.00,CLR,,0.00,WeatherDisplay:10.37,2013-09-29 04:45:00,
2013-09-29 00:55:00,51.5,51.5,30.26,SSE,165,0.0,0.0,100,0.00,CLR,,0.00,WeatherDisplay:10.37,2013-09-29 04:55:00,
2013-09-29 01:00:00,51.4,51.4,30.27,SSE,165,0.0,0.0,100,0.00,CLR,,0.00,WeatherDisplay:10.37,2013-09-29 05:00:00,
2013-09-29 01:10:00,51.2,51.2,30.27,SSE,165,0.0,0.0,100,0.00,CLR,,0.00,WeatherDisplay:10.37,2013-09-29 05:10:00,
2013-09-29 01:15:00,51.2,51.2,30.27,SSE,165,0.0,0.0,100,0.00,CLR,,0.00,WeatherDisplay:10.37,2013-09-29 05:15:00,
2013-09-29 01:25:00,51.2,51.2,30.27,SSE,165,0.0,0.0,100,0.00,CLR,,0.00,WeatherDisplay:10.37,2013-09-29 05:25:00,
2013-09-29 01:30:00,51.2,51.2,30.26,SSE,165,0.0,0.0,100,0.00,CLR,,0.00,WeatherDisplay:10.37,2013-09-29 05:30:00,
2013-09-29 01:35:00,51.1,51.1,30.27,SSE,165,0.0,0.0,100,0.00,CLR,,0.00,WeatherDisplay:10.37,2013-09-29 05:35:00,
2013-09-29 01:40:00,51.0,51.0,30.26,SSE,165,0.0,0.0,100,0.00,CLR,,0.00,WeatherDisplay:10.37,2013-09-29 05:40:00,
2013-09-29 01:45:00,51.1,51.1,30.26,SSE,165,0.0,0.0,100,0.00,CLR,,0.00,WeatherDisplay:10.37,2013-09-29 05:45:00,
2013-09-29 01:55:00,51.5,51.5,30.26,SSE,165,0.0,0.0,100,0.00,CLR,,0.00,WeatherDisplay:10.37,2013-09-29 05:55:00,
2013-09-29 02:00:00,51.7,51.7,30.26,SSE,165,0.0,0.0,100,0.00,CLR,,0.00,WeatherDisplay:10.37,2013-09-29 06:00:00,
2013-09-29 02:10:00,51.6,51.6,30.25,SSE,165,0.0,0.0,100,0.00,CLR,,0.00,WeatherDisplay:10.37,2013-09-29 06:10:00,
2013-09-29 02:15:00,51.4,51.4,30.25,SSE,165,0.0,0.0,100,0.00,CLR,,0.00,WeatherDisplay:10.37,2013-09-29 06:15:00,
2013-09-29 02:25:00,51.2,51.2,30.25,SSE,165,0.0,0.0,100,0.00,CLR,,0.00,WeatherDisplay:10.37,2013-09-29 06:25:00,
2013-09-29 02:30:00,51.1,51.1,30.25,SSE,165,0.0,0.0,100,0.00,CLR,,0.00,WeatherDisplay:10.37,2013-09-29 06:30:00,
2013-09-29 02:40:00,51.0,51.0,30.25,SSE,165,0.0,0.0,100,0.00,CLR,,0.00,WeatherDisplay:10.37,2013-09-29 06:40:00,
2013-09-29 02:50:00,51.2,51.2,30.25,SSE,165,0.0,0.0,100,0.00,CLR,,0.00,WeatherDisplay:10.37,2013-09-29 06:50:00,
2013-09-29 02:55:00,51.2,51.2,30.25,SSE,165,0.0,0.0,100,0.00,CLR,,0.00,WeatherDisplay:10.37,2013-09-29 06:55:00,
2013-09-29 03:00:00,51.2,51.2,30.25,SSE,165,0.0,0.0,100,0.00,CLR,,0.00,WeatherDisplay:10.37,2013-09-29 07:00:00,
2013-09-29 03:10:00,51.1,51.1,30.24,SSE,165,0.0,0.0,100,0.00,CLR,,0.00,WeatherDisplay:10.37,2013-09-29 07:10:00,
2013-09-29 03:15:00,51.0,51.0,30.24,SSE,165,0.0,0.0,100,0.00,CLR,,0.00,WeatherDisplay:10.37,2013-09-29 07:15:00,
2013-09-29 03:25:00,51.0,51.0,30.24,SSE,165,0.0,0.0,100,0.00,CLR,,0.00,WeatherDisplay:10.37,2013-09-29 07:25:00,
2013-09-29 03:30:00,50.8,50.8,30.24,SSE,165,0.0,0.0,100,0.00,CLR,,0.00,WeatherDisplay:10.37,2013-09-29 07:30:00,
2013-09-29 03:40:00,50.5,50.5,30.24,SSE,165,0.0,0.0,100,0.00,CLR,,0.00,WeatherDisplay:10.37,2013-09-29 07:40:00,
2013-09-29 03:45:00,50.3,50.3,30.24,SSE,165,0.0,0.0,100,0.00,CLR,,0.00,WeatherDisplay:10.37,2013-09-29 07:45:00,
2013-09-29 03:55:00,49.9,49.9,30.24,SSE,165,0.0,0.0,100,0.00,CLR,,0.00,WeatherDisplay:10.37,2013-09-29 07:55:00,
2013-09-29 04:00:00,49.8,49.8,30.24,SSE,165,0.0,0.0,100,0.00,CLR,,0.00,WeatherDisplay:10.37,2013-09-29 08:00:00,
2013-09-29 04:10:00,49.7,49.7,30.24,SSE,165,0.0,0.0,100,0.00,CLR,,0.00,WeatherDisplay:10.37,2013-09-29 08:10:00,
2013-09-29 04:15:00,49.6,49.6,30.24,SSE,165,0.0,0.0,100,0.00,CLR,,0.00,WeatherDisplay:10.37,2013-09-29 08:15:00,
2013-09-29 04:25:00,49.4,49.4,30.23,SSE,165,0.0,0.0,100,0.00,CLR,,0.00,WeatherDisplay:10.37,2013-09-29 08:25:00,
2013-09-29 04:30:00,49.2,49.2,30.23,SSE,165,0.0,0.0,100,0.00,CLR,,0.00,WeatherDisplay:10.37,2013-09-29 08:30:00,
2013-09-29 04:40:00,49.2,49.2,30.23,SSE,165,0.0,0.0,100,0.00,CLR,,0.00,WeatherDisplay:10.37,2013-09-29 08:40:00,
2013-09-29 04:45:00,49.2,49.2,30.22,SSE,165,0.0,0.0,100,0.00,CLR,,0.00,WeatherDisplay:10.37,2013-09-29 08:45:00,
2013-09-29 04:55:00,49.2,49.2,30.22,SSE,165,0.0,0.0,100,0.00,CLR,,0.00,WeatherDisplay:10.37,2013-09-29 08:55:00,
2013-09-29 05:00:00,49.1,49.1,30.23,SSE,165,0.0,0.0,100,0.00,CLR,,0.00,WeatherDisplay:10.37,2013-09-29 09:00:00,
2013-09-29 05:10:00,48.9,48.9,30.22,SSE,165,0.0,0.0,100,0.00,CLR,,0.00,WeatherDisplay:10.37,2013-09-29 09:10:00,
2013-09-29 05:15:00,48.8,48.8,30.22,SSE,165,0.0,0.0,100,0.00,CLR,,0.00,WeatherDisplay:10.37,2013-09-29 09:15:00,
2013-09-29 05:25:00,48.7,48.7,30.22,SSE,165,0.0,0.0,100,0.00,CLR,,0.00,WeatherDisplay:10.37,2013-09-29 09:25:00,
2013-09-29 05:30:00,48.6,48.6,30.22,SSE,165,0.0,0.0,100,0.00,CLR,,0.00,WeatherDisplay:10.37,2013-09-29 09:30:00,
2013-09-29 05:40:00,48.4,48.4,30.23,SSE,165,0.0,0.0,100,0.00,CLR,,0.00,WeatherDisplay:10.37,2013-09-29 09:40:00,
2013-09-29 05:45:00,48.3,48.3,30.22,SSE,165,0.0,0.0,100,0.00,CLR,,0.00,WeatherDisplay:10.37,2013-09-29 09:45:00,
2013-09-29 05:55:00,47.9,47.9,30.22,SSE,165,0.0,0.0,100,0.00,CLR,,0.00,WeatherDisplay:10.37,2013-09-29 09:55:00,
2013-09-29 06:00:00,47.9,47.9,30.22,SSE,165,0.0,0.0,100,0.00,CLR,,0.00,WeatherDisplay:10.37,2013-09-29 10:00:00,
2013-09-29 06:15:00,47.7,47.7,30.22,SSE,165,0.0,0.0,100,0.00,CLR,,0.00,WeatherDisplay:10.37,2013-09-29 10:15:00,
2013-09-29 06:25:00,47.6,47.6,30.22,SSE,165,0.0,0.0,100,0.00,CLR,,0.00,WeatherDisplay:10.37,2013-09-29 10:25:00,
2013-09-29 06:30:00,47.5,47.5,30.22,SSE,165,0.0,0.0,100,0.00,CLR,,0.00,WeatherDisplay:10.37,2013-09-29 10:30:00,
2013-09-29 06:40:00,47.3,47.3,30.22,SSE,165,0.0,0.0,100,0.00,CLR,,0.00,WeatherDisplay:10.37,2013-09-29 10:40:00,
2013-09-29 06:45:00,47.1,47.1,30.22,SSE,165,0.0,0.0,100,0.00,CLR,,0.00,WeatherDisplay:10.37,2013-09-29 10:45:00,
2013-09-29 06:55:00,47.2,47.2,30.22,SSE,165,0.0,0.0,100,0.00,CLR,,0.00,WeatherDisplay:10.37,2013-09-29 10:55:00,
2013-09-29 07:00:00,47.2,47.2,30.22,SSE,165,0.0,0.0,100,0.00,CLR,,0.00,WeatherDisplay:10.37,2013-09-29 11:00:00,
2013-09-29 07:10:00,47.1,47.1,30.22,SSE,165,0.0,0.0,100,0.00,CLR,,0.00,WeatherDisplay:10.37,2013-09-29 11:10:00,
2013-09-29 07:15:00,47.0,47.0,30.22,SSE,165,0.0,0.0,100,0.00,CLR,,0.00,WeatherDisplay:10.37,2013-09-29 11:15:00,
2013-09-29 07:25:00,47.1,47.1,30.22,SSE,165,0.0,0.0,100,0.00,CLR,,0.00,WeatherDisplay:10.37,2013-09-29 11:25:00,
2013-09-29 07:30:00,47.3,47.3,30.22,SSE,165,0.0,0.0,100,0.00,CLR,,0.00,WeatherDisplay:10.37,2013-09-29 11:30:00,
2013-09-29 07:40:00,47.4,47.4,30.22,SSE,165,0.0,0.0,100,0.00,CLR,,0.00,WeatherDisplay:10.37,2013-09-29 11:40:00,
2013-09-29 07:45:00,47.5,47.5,30.22,SSE,165,0.0,0.0,100,0.00,CLR,,0.00,WeatherDisplay:10.37,2013-09-29 11:45:00,
2013-09-29 07:55:00,47.7,47.7,30.22,SSE,165,0.0,0.0,100,0.00,CLR,,0.00,WeatherDisplay:10.37,2013-09-29 11:55:00,
2013-09-29 08:00:00,47.9,47.9,30.22,SSE,165,0.0,0.0,100,0.00,CLR,,0.00,WeatherDisplay:10.37,2013-09-29 12:00:00,
2013-09-29 08:10:00,48.9,48.9,30.22,SSE,165,0.0,0.0,100,0.00,CLR,,0.00,WeatherDisplay:10.37,2013-09-29 12:10:00,
2013-09-29 08:15:00,49.7,49.7,30.22,SSE,165,0.0,0.0,100,0.00,CLR,,0.00,WeatherDisplay:10.37,2013-09-29 12:15:00,
2013-09-29 08:25:00,50.7,50.7,30.22,SSE,165,0.0,0.0,100,0.00,CLR,,0.00,WeatherDisplay:10.37,2013-09-29 12:25:00,
2013-09-29 08:30:00,51.1,51.1,30.22,SSE,165,0.0,0.0,100,0.00,CLR,,0.00,WeatherDisplay:10.37,2013-09-29 12:30:00,
2013-09-29 08:40:00,52.1,52.1,30.22,SSE,165,0.0,0.0,100,0.00,CLR,,0.00,WeatherDisplay:10.37,2013-09-29 12:40:00,
2013-09-29 08:45:00,52.3,52.3,30.22,SSE,165,0.0,0.0,100,0.00,CLR,,0.00,WeatherDisplay:10.37,2013-09-29 12:45:00,
2013-09-29 08:55:00,53.1,53.1,30.22,SSE,165,0.0,0.0,100,0.00,CLR,,0.00,WeatherDisplay:10.37,2013-09-29 12:55:00,
2013-09-29 09:00:00,53.8,53.8,30.22,SSE,165,0.0,0.0,100,0.00,CLR,,0.00,WeatherDisplay:10.37,2013-09-29 13:00:00,
2013-09-29 09:10:00,55.5,55.5,30.22,SSE,165,0.0,0.0,100,0.00,CLR,,0.00,WeatherDisplay:10.37,2013-09-29 13:10:00,
2013-09-29 09:15:00,56.3,56.3,30.22,SSE,165,0.0,0.0,100,0.00,CLR,,0.00,WeatherDisplay:10.37,2013-09-29 13:15:00,
2013-09-29 09:25:00,57.4,57.4,30.22,SSE,165,0.0,0.0,100,0.00,CLR,,0.00,WeatherDisplay:10.37,2013-09-29 13:25:00,
2013-09-29 09:30:00,57.8,57.8,30.22,SSE,165,0.0,0.0,100,0.00,CLR,,0.00,WeatherDisplay:10.37,2013-09-29 13:30:00,
2013-09-29 09:40:00,58.7,58.7,30.22,SSE,165,0.0,0.0,100,0.00,CLR,,0.00,WeatherDisplay:10.37,2013-09-29 13:40:00,
2013-09-29 09:45:00,59.1,59.1,30.22,SSE,165,0.0,0.0,100,0.00,CLR,,0.00,WeatherDisplay:10.37,2013-09-29 13:45:00,
2013-09-29 09:55:00,60.6,60.6,30.22,SSE,165,0.0,0.0,100,0.00,CLR,,0.00,WeatherDisplay:10.37,2013-09-29 13:55:00,
2013-09-29 10:00:00,61.3,60.8,30.22,SSE,165,0.0,0.0,98,0.00,CLR,,0.00,WeatherDisplay:10.37,2013-09-29 14:00:00,
2013-09-29 10:10:00,61.9,60.7,30.22,SSE,165,0.0,0.0,96,0.00,CLR,,0.00,WeatherDisplay:10.37,2013-09-29 14:10:00,
2013-09-29 10:15:00,61.8,61.0,30.22,SSE,165,0.0,0.0,97,0.00,CLR,,0.00,WeatherDisplay:10.37,2013-09-29 14:15:00,
2013-09-29 10:25:00,62.0,61.5,30.21,SSE,165,0.0,0.0,98,0.00,CLR,,0.00,WeatherDisplay:10.37,2013-09-29 14:25:00,
2013-09-29 10:30:00,62.5,61.4,30.21,SSE,165,0.0,0.0,96,0.00,CLR,,0.00,WeatherDisplay:10.37,2013-09-29 14:30:00,
2013-09-29 10:40:00,63.8,62.0,30.22,SSE,168,2.0,8.0,94,0.00,CLR,,0.00,WeatherDisplay:10.37,2013-09-29 14:40:00,
2013-09-29 10:45:00,64.4,61.7,30.21,SSE,160,0.0,8.0,91,0.00,CLR,,0.00,WeatherDisplay:10.37,2013-09-29 14:45:00,
2013-09-29 10:55:00,65.1,62.1,30.21,SSE,153,2.0,8.0,90,0.00,CLR,,0.00,WeatherDisplay:10.37,2013-09-29 14:55:00,
2013-09-29 11:00:00,65.2,61.6,30.21,SE,141,3.0,7.0,88,0.00,CLR,,0.00,WeatherDisplay:10.37,2013-09-29 15:00:00,
2013-09-29 11:10:00,65.3,62.0,30.20,SSE,160,1.0,6.0,89,0.00,CLR,,0.00,WeatherDisplay:10.37,2013-09-29 15:10:00,
2013-09-29 11:15:00,65.4,61.4,30.20,SE,132,0.0,6.0,87,0.00,CLR,,0.00,WeatherDisplay:10.37,2013-09-29 15:15:00,
2013-09-29 11:25:00,66.2,62.2,30.20,South,181,3.0,8.0,87,0.00,CLR,,0.00,WeatherDisplay:10.37,2013-09-29 15:25:00,
2013-09-29 11:30:00,66.2,62.9,30.20,South,179,0.0,7.0,89,0.00,CLR,,0.00,WeatherDisplay:10.37,2013-09-29 15:30:00,
2013-09-29 11:40:00,66.9,63.8,30.20,SSW,204,5.0,6.0,90,0.00,CLR,,0.00,WeatherDisplay:10.37,2013-09-29 15:40:00,
2013-09-29 11:45:00,67.1,62.8,30.20,SW,217,1.0,9.0,86,0.00,CLR,,0.00,WeatherDisplay:10.37,2013-09-29 15:45:00,
2013-09-29 11:55:00,67.5,63.2,30.20,SW,232,0.0,8.0,86,0.00,CLR,,0.00,WeatherDisplay:10.37,2013-09-29 15:55:00,
2013-09-29 12:00:00,67.8,62.1,30.20,South,180,1.0,8.0,82,0.00,CLR,,0.00,WeatherDisplay:10.37,2013-09-29 16:00:00,
2013-09-29 12:10:00,67.1,61.4,30.20,SE,136,1.0,9.0,82,0.00,CLR,,0.00,WeatherDisplay:10.37,2013-09-29 16:10:00,
2013-09-29 12:20:00,67.3,62.3,30.20,South,171,1.0,8.0,84,0.00,CLR,,0.00,WeatherDisplay:10.37,2013-09-29 16:20:00,
2013-09-29 12:25:00,67.8,61.8,30.20,South,177,0.0,7.0,81,0.00,CLR,,0.00,WeatherDisplay:10.37,2013-09-29 16:25:00,
2013-09-29 12:30:00,68.1,60.9,30.20,SSE,155,3.0,7.0,78,0.00,CLR,,0.00,WeatherDisplay:10.37,2013-09-29 16:30:00,
2013-09-29 12:40:00,68.3,61.5,30.19,SE,142,2.0,5.0,79,0.00,CLR,,0.00,WeatherDisplay:10.37,2013-09-29 16:40:00,
2013-09-29 12:45:00,68.5,60.6,30.19,SSE,153,3.0,8.0,76,0.00,CLR,,0.00,WeatherDisplay:10.37,2013-09-29 16:45:00,
2013-09-29 12:55:00,68.6,62.2,30.19,SSW,194,6.0,8.0,80,0.00,CLR,,0.00,WeatherDisplay:10.37,2013-09-29 16:55:00,
2013-09-29 13:00:00,69.0,60.8,30.19,South,186,1.0,9.0,75,0.00,CLR,,0.00,WeatherDisplay:10.37,2013-09-29 17:00:00,
2013-09-29 13:10:00,68.6,61.1,30.18,SSE,154,0.0,9.0,77,0.00,CLR,,0.00,WeatherDisplay:10.37,2013-09-29 17:10:00,
2013-09-29 13:15:00,68.5,60.6,30.18,SSE,148,1.0,8.0,76,0.00,CLR,,0.00,WeatherDisplay:10.37,2013-09-29 17:15:00,
2013-09-29 13:25:00,68.5,59.9,30.18,SSE,168,2.0,7.0,74,0.00,CLR,,0.00,WeatherDisplay:10.37,2013-09-29 17:25:00,
2013-09-29 13:30:00,68.6,60.8,30.18,South,190,5.0,7.0,76,0.00,CLR,,0.00,WeatherDisplay:10.37,2013-09-29 17:30:00,
2013-09-29 13:40:00,68.7,59.3,30.17,SSW,195,6.0,9.0,72,0.00,CLR,,0.00,WeatherDisplay:10.37,2013-09-29 17:40:00,
2013-09-29 13:45:00,68.9,59.8,30.17,SSW,200,6.0,8.0,73,0.00,CLR,,0.00,WeatherDisplay:10.37,2013-09-29 17:45:00,
2013-09-29 13:55:00,68.4,58.2,30.17,SSE,164,3.0,9.0,70,0.00,CLR,,0.00,WeatherDisplay:10.37,2013-09-29 17:55:00,
2013-09-29 14:00:00,68.3,59.3,30.17,South,187,7.0,9.0,73,0.00,CLR,,0.00,WeatherDisplay:10.37,2013-09-29 18:00:00,
2013-09-29 14:10:00,68.4,57.8,30.17,SSE,158,3.0,6.0,69,0.00,CLR,,0.00,WeatherDisplay:10.37,2013-09-29 18:10:00,
2013-09-29 14:15:00,68.6,59.2,30.17,South,182,0.0,8.0,72,0.00,CLR,,0.00,WeatherDisplay:10.37,2013-09-29 18:15:00,
2013-09-29 14:30:00,68.2,58.8,30.17,SSW,201,0.0,8.0,72,0.00,CLR,,0.00,WeatherDisplay:10.37,2013-09-29 18:30:00,
2013-09-29 14:40:00,68.4,58.2,30.16,SSW,201,0.0,7.0,70,0.00,CLR,,0.00,WeatherDisplay:10.37,2013-09-29 18:40:00,
2013-09-29 14:45:00,68.5,59.1,30.16,SW,216,3.0,10.0,72,0.00,CLR,,0.00,WeatherDisplay:10.37,2013-09-29 18:45:00,
2013-09-29 14:55:00,68.5,57.6,30.16,SSW,206,3.0,9.0,68,0.00,CLR,,0.00,WeatherDisplay:10.37,2013-09-29 18:55:00,
2013-09-29 15:00:00,68.5,58.4,30.16,SW,219,2.0,9.0,70,0.00,CLR,,0.00,WeatherDisplay:10.37,2013-09-29 19:00:00,
2013-09-29 15:10:00,68.4,57.8,30.16,South,176,1.0,7.0,69,0.00,CLR,,0.00,WeatherDisplay:10.37,2013-09-29 19:10:00,
2013-09-29 15:15:00,68.1,58.0,30.15,SE,137,1.0,11.0,70,0.00,CLR,,0.00,WeatherDisplay:10.37,2013-09-29 19:15:00,
2013-09-29 15:25:00,68.1,57.1,30.15,South,170,2.0,9.0,68,0.00,CLR,,0.00,WeatherDisplay:10.37,2013-09-29 19:25:00,
2013-09-29 15:30:00,68.0,57.1,30.15,SSE,155,1.0,8.0,68,0.00,CLR,,0.00,WeatherDisplay:10.37,2013-09-29 19:30:00,
2013-09-29 15:40:00,68.1,55.9,30.17,SSW,197,0.0,6.0,65,0.00,CLR,,0.00,WeatherDisplay:10.37,2013-09-29 19:40:00,
2013-09-29 15:45:00,68.1,56.7,30.17,SSE,168,2.0,7.0,67,0.00,CLR,,0.00,WeatherDisplay:10.37,2013-09-29 19:45:00,
2013-09-29 15:55:00,68.0,57.4,30.16,WSW,245,5.0,7.0,69,0.00,CLR,,0.00,WeatherDisplay:10.37,2013-09-29 19:55:00,
2013-09-29 16:00:00,68.0,58.2,30.15,WSW,254,0.0,6.0,71,0.00,CLR,,0.00,WeatherDisplay:10.37,2013-09-29 20:00:00,
2013-09-29 16:10:00,67.9,58.5,30.15,WSW,248,0.0,6.0,72,0.00,CLR,,0.00,WeatherDisplay:10.37,2013-09-29 20:10:00,
2013-09-29 16:15:00,67.8,58.1,30.15,SW,235,0.0,5.0,71,0.00,CLR,,0.00,WeatherDisplay:10.37,2013-09-29 20:15:00,
2013-09-29 16:25:00,67.4,57.3,30.14,SW,225,0.0,6.0,70,0.00,CLR,,0.00,WeatherDisplay:10.37,2013-09-29 20:25:00,
2013-09-29 16:30:00,67.4,56.9,30.14,SSW,211,1.0,7.0,69,0.00,CLR,,0.00,WeatherDisplay:10.37,2013-09-29 20:30:00,
2013-09-29 16:40:00,67.1,57.4,30.14,SW,230,0.0,6.0,71,0.00,CLR,,0.00,WeatherDisplay:10.37,2013-09-29 20:40:00,
2013-09-29 16:45:00,67.0,56.9,30.14,SW,218,0.0,0.0,70,0.00,CLR,,0.00,WeatherDisplay:10.37,2013-09-29 20:45:00,
2013-09-29 16:55:00,66.9,56.8,30.13,SW,216,0.0,0.0,70,0.00,CLR,,0.00,WeatherDisplay:10.37,2013-09-29 20:55:00,
2013-09-29 17:00:00,66.9,57.2,30.13,SW,216,0.0,0.0,71,0.00,CLR,,0.00,WeatherDisplay:10.37,2013-09-29 21:00:00,
2013-09-29 17:10:00,66.8,57.5,30.13,SW,216,0.0,0.0,72,0.00,CLR,,0.00,WeatherDisplay:10.37,2013-09-29 21:10:00,
2013-09-29 17:15:00,66.7,58.1,30.13,SW,216,0.0,0.0,74,0.00,CLR,,0.00,WeatherDisplay:10.37,2013-09-29 21:15:00,
2013-09-29 17:25:00,65.9,57.4,30.13,SW,216,0.0,0.0,74,0.00,CLR,,0.00,WeatherDisplay:10.37,2013-09-29 21:25:00,
2013-09-29 17:30:00,65.6,57.9,30.13,SW,216,0.0,0.0,76,0.00,CLR,,0.00,WeatherDisplay:10.37,2013-09-29 21:30:00,
2013-09-29 17:40:00,65.2,59.9,30.13,SW,216,0.0,0.0,83,0.00,CLR,,0.00,WeatherDisplay:10.37,2013-09-29 21:40:00,
2013-09-29 17:45:00,64.9,59.6,30.14,SW,216,0.0,0.0,83,0.00,CLR,,0.00,WeatherDisplay:10.37,2013-09-29 21:45:00,
2013-09-29 17:55:00,64.0,59.4,30.13,SW,216,0.0,0.0,85,0.00,CLR,,0.00,WeatherDisplay:10.37,2013-09-29 21:55:00,
2013-09-29 18:00:00,63.4,59.5,30.13,SW,216,0.0,0.0,87,0.00,CLR,,0.00,WeatherDisplay:10.37,2013-09-29 22:00:00,
2013-09-29 18:10:00,62.5,59.5,30.13,SW,216,0.0,0.0,90,0.00,CLR,,0.00,WeatherDisplay:10.37,2013-09-29 22:10:00,
2013-09-29 18:15:00,62.0,59.4,30.13,SW,216,0.0,0.0,91,0.00,CLR,,0.00,WeatherDisplay:10.37,2013-09-29 22:15:00,
2013-09-29 18:25:00,61.1,58.5,30.13,SW,216,0.0,5.0,91,0.00,CLR,,0.00,WeatherDisplay:10.37,2013-09-29 22:25:00,
2013-09-29 18:30:00,60.7,58.4,30.13,SW,219,0.0,5.0,92,0.00,CLR,,0.00,WeatherDisplay:10.37,2013-09-29 22:30:00,
2013-09-29 18:40:00,60.0,58.0,30.13,SW,222,0.0,0.0,93,0.00,CLR,,0.00,WeatherDisplay:10.37,2013-09-29 22:40:00,
2013-09-29 18:45:00,59.6,57.9,30.13,SSW,202,1.0,5.0,94,0.00,CLR,,0.00,WeatherDisplay:10.37,2013-09-29 22:45:00,
2013-09-29 18:55:00,59.2,57.8,30.13,SSE,167,0.0,6.0,95,0.00,CLR,,0.00,WeatherDisplay:10.37,2013-09-29 22:55:00,
2013-09-29 19:00:00,59.0,57.9,30.13,South,177,0.0,3.0,96,0.00,CLR,,0.00,WeatherDisplay:10.37,2013-09-29 23:00:00,
2013-09-29 19:10:00,58.7,57.5,30.13,SSE,149,2.0,10.0,96,0.00,CLR,,0.00,WeatherDisplay:10.37,2013-09-29 23:10:00,
2013-09-29 19:15:00,58.6,57.7,30.13,SE,140,3.0,7.0,97,0.00,CLR,,0.00,WeatherDisplay:10.37,2013-09-29 23:15:00,
2013-09-29 19:25:00,58.3,57.5,30.13,SE,137,3.0,8.0,97,0.00,CLR,,0.00,WeatherDisplay:10.37,2013-09-29 23:25:00,
2013-09-29 19:30:00,58.2,57.4,30.13,SSE,152,2.0,6.0,97,0.00,CLR,,0.00,WeatherDisplay:10.37,2013-09-29 23:30:00,
2013-09-29 19:40:00,58.0,57.4,30.13,East,100,0.0,8.0,98,0.00,CLR,,0.00,WeatherDisplay:10.37,2013-09-29 23:40:00,
2013-09-29 19:45:00,57.8,57.2,30.14,ESE,117,5.0,6.0,98,0.00,CLR,,0.00,WeatherDisplay:10.37,2013-09-29 23:45:00,
2013-09-29 19:55:00,57.4,56.8,30.14,SSE,156,1.0,7.0,98,0.00,CLR,,0.00,WeatherDisplay:10.37,2013-09-29 23:55:00,
2013-09-29 20:00:00,57.2,56.9,30.14,SSE,148,3.0,7.0,99,0.00,CLR,,0.00,WeatherDisplay:10.37,2013-09-30 00:00:00,
2013-09-29 20:10:00,56.8,56.5,30.14,SE,141,0.0,5.0,99,0.00,CLR,,0.00,WeatherDisplay:10.37,2013-09-30 00:10:00,
2013-09-29 20:15:00,56.5,56.5,30.14,SE,139,3.0,7.0,100,0.00,CLR,,0.00,WeatherDisplay:10.37,2013-09-30 00:15:00,
2013-09-29 20:25:00,56.0,56.0,30.14,South,175,1.0,5.0,100,0.00,CLR,,0.00,WeatherDisplay:10.37,2013-09-30 00:25:00,
2013-09-29 20:30:00,55.8,55.8,30.14,South,178,0.0,5.0,100,0.00,CLR,,0.00,WeatherDisplay:10.37,2013-09-30 00:30:00,
2013-09-29 20:40:00,55.2,55.2,30.14,South,178,0.0,0.0,100,0.00,CLR,,0.00,WeatherDisplay:10.37,2013-09-30 00:40:00,
2013-09-29 20:50:00,54.6,54.6,30.14,South,178,0.0,0.0,100,0.00,CLR,,0.00,WeatherDisplay:10.37,2013-09-30 00:50:00,
2013-09-29 20:55:00,54.3,54.3,30.14,South,178,0.0,0.0,100,0.00,CLR,,0.00,WeatherDisplay:10.37,2013-09-30 00:55:00,
2013-09-29 21:00:00,54.0,54.0,30.14,South,178,0.0,0.0,100,0.00,CLR,,0.00,WeatherDisplay:10.37,2013-09-30 01:00:00,
2013-09-29 21:10:00,53.2,53.2,30.14,South,178,0.0,0.0,100,0.00,CLR,,0.00,WeatherDisplay:10.37,2013-09-30 01:10:00,
2013-09-29 21:15:00,52.8,52.8,30.14,South,178,0.0,0.0,100,0.00,CLR,,0.00,WeatherDisplay:10.37,2013-09-30 01:15:00,
2013-09-29 21:25:00,52.3,52.3,30.15,South,178,0.0,0.0,100,0.00,CLR,,0.00,WeatherDisplay:10.37,2013-09-30 01:25:00,
2013-09-29 21:30:00,52.0,52.0,30.15,South,178,0.0,0.0,100,0.00,CLR,,0.00,WeatherDisplay:10.37,2013-09-30 01:30:00,
2013-09-29 21:40:00,51.7,51.7,30.15,South,178,0.0,0.0,100,0.00,CLR,,0.00,WeatherDisplay:10.37,2013-09-30 01:40:00,
2013-09-29 21:45:00,51.7,51.7,30.15,South,178,0.0,0.0,100,0.00,CLR,,0.00,WeatherDisplay:10.37,2013-09-30 01:45:00,
2013-09-29 21:55:00,51.5,51.5,30.15,South,178,0.0,0.0,100,0.00,CLR,,0.00,WeatherDisplay:10.37,2013-09-30 01:55:00,
2013-09-29 22:00:00,51.4,51.4,30.15,South,178,0.0,0.0,100,0.00,CLR,,0.00,WeatherDisplay:10.37,2013-09-30 02:00:00,
2013-09-29 22:10:00,51.2,51.2,30.15,South,178,0.0,0.0,100,0.00,CLR,,0.00,WeatherDisplay:10.37,2013-09-30 02:10:00,
2013-09-29 22:15:00,50.9,51.0,30.14,South,178,0.0,0.0,100,0.00,CLR,,0.00,WeatherDisplay:10.37,2013-09-30 02:15:00,
2013-09-29 22:25:00,50.6,50.6,30.14,South,178,0.0,0.0,100,0.00,CLR,,0.00,WeatherDisplay:10.37,2013-09-30 02:25:00,
2013-09-29 22:30:00,50.5,50.5,30.14,South,178,0.0,0.0,100,0.00,CLR,,0.00,WeatherDisplay:10.37,2013-09-30 02:30:00,
2013-09-29 22:40:00,50.2,50.2,30.14,South,178,0.0,0.0,100,0.00,CLR,,0.00,WeatherDisplay:10.37,2013-09-30 02:40:00,
2013-09-29 22:45:00,50.2,50.2,30.14,South,178,0.0,0.0,100,0.00,CLR,,0.00,WeatherDisplay:10.37,2013-09-30 02:45:00,
2013-09-29 22:55:00,50.1,50.1,30.14,South,178,0.0,0.0,100,0.00,CLR,,0.00,WeatherDisplay:10.37,2013-09-30 02:55:00,
2013-09-29 23:00:00,50.0,50.1,30.14,South,178,0.0,0.0,100,0.00,CLR,,0.00,WeatherDisplay:10.37,2013-09-30 03:00:00,
2013-09-29 23:10:00,49.9,49.9,30.14,South,178,0.0,0.0,100,0.00,CLR,,0.00,WeatherDisplay:10.37,2013-09-30 03:10:00,
2013-09-29 23:15:00,49.8,49.8,30.14,South,178,0.0,0.0,100,0.00,CLR,,0.00,WeatherDisplay:10.37,2013-09-30 03:15:00,
2013-09-29 23:25:00,49.7,49.7,30.14,South,178,0.0,0.0,100,0.00,CLR,,0.00,WeatherDisplay:10.37,2013-09-30 03:25:00,
2013-09-29 23:30:00,49.7,49.7,30.14,South,178,0.0,0.0,100,0.00,CLR,,0.00,WeatherDisplay:10.37,2013-09-30 03:30:00,
2013-09-29 23:40:00,49.6,49.6,30.13,South,178,0.0,0.0,100,0.00,CLR,,0.00,WeatherDisplay:10.37,2013-09-30 03:40:00,
2013-09-29 23:45:00,49.4,49.4,30.13,South,178,0.0,0.0,100,0.00,CLR,,0.00,WeatherDisplay:10.37,2013-09-30 03:45:00,
2013-09-29 23:55:00,49.3,49.3,30.13,South,178,0.0,0.0,100,0.00,CLR,,0.00,WeatherDisplay:10.37,2013-09-30 03:55:00,